Tracking 28126 objects as of 2-Oct-2023
HD Live streaming from Space Station
objects crossing your sky now

VIGORIDE 5

Track VIGORIDE 5 now!
10-day predictions


NORAD ID: 55056
Int'l Code: 2023-001AZ
Perigee: 519.0 km
Apogee: 535.7 km
Inclination: 97.5 °
Period: 95.0 minutes
Semi major axis: 6898 km
RCS: Unknown
Launch date: January 3, 2023
Source: United States (US)
Launch site: AIR FORCE EASTERN TEST RANGE (AFETR)
Your satellite tracking list
Your tracking list is empty




NASA's NSSDC Master Catalog

Two Line Element Set (TLE):
1 55056U 23001AZ  23274.70451210  .00013050  00000-0  69539-3 0  9999
2 55056  97.4674 332.3655 0012071  12.5107 347.6422 15.15260245 41187
Source of the keplerian elements: AFSPC